Zanesville, OH

4:58 AM EDT on July 23, 2017 (GMT -0400)
Zanesville Municipal

Weather History for KZZV - January, 2013

Change the Weather History Date:

Monday, January 21, 2013

  Actual Average Record
Temperature  
Mean Temperature 18 °F 29 °F  
Max Temperature 25 °F 37 °F 65 °F (1959)
Min Temperature 11 °F 20 °F -22 °F (1984)
Degree Days  
Heating Degree Days 47 36  
Month to date heating degree days 667 756  
Since 1 July heating degree days 2773 2901  
Cooling Degree Days 0 0  
Month to date cooling degree days 0 0  
Year to date cooling degree days 0 0  
Moisture  
Dew Point 11 °F    
Average Humidity 62    
Maximum Humidity 68    
Minimum Humidity 55    
Precipitation  
Precipitation T in 0.09 in 0.79 in (1959)
Month to date precipitation 0.84 1.86  
Year to date precipitation 0.84 1.86  
Sea Level Pressure  
Sea Level Pressure 30.06 in    
Wind  
Wind Speed 11 mph (West)    
Max Wind Speed 22 mph    
Max Gust Speed 31 mph    
Visibility 7 miles    
Events Snow    
T = Trace of Precipitation, MM = Missing Value Source: NWS Daily Summary

Daily Weather History Graph

Daily Weather History Graph

Search for Another Location

Airport or City:

Trip Planner

Search our weather history database for the weather conditions in past years. The results will help you decide how hot, cold, wet, or windy it might be!

Date:

Astronomy

Jan. 21, 2013 Rise Set
Actual Time 7:44 AM EST 5:34 PM EST
Civil Twilight 7:14 AM EST 6:03 PM EST
Nautical Twilight 6:41 AM EST 6:36 PM EST
Astronomical Twilight 6:09 AM EST 7:08 PM EST
Moon 1:13 PM EST (1/21) 3:11 AM EST (1/21)
Length of Visible Light 10h 48m
Length of Day
9h 49m
Waxing Gibbous, 75% of the Moon is Illuminated
Jan 21
Waxing Gibbous
Jan 26
Full
Feb 3
Last Quarter
Feb 10
New
Feb 17
First Quarter

Hourly Weather History & Observations

Time (EST) Temp. Windchill Dew Point Humidity Pressure Visibility Wind Dir Wind Speed Gust Speed Precip Events Conditions
12:53 AM 24.1 °F - 14.0 °F 65% 30.15 in 10.0 mi Calm Calm - N/A   Overcast
1:53 AM 24.1 °F - 14.0 °F 65% 30.14 in 10.0 mi Calm Calm - N/A   Overcast
2:53 AM 24.1 °F - 12.9 °F 62% 30.12 in 10.0 mi Calm Calm - N/A   Overcast
3:53 AM 24.1 °F 19.7 °F 12.9 °F 62% 30.11 in 10.0 mi SW 3.5 mph - N/A   Overcast
4:53 AM 24.1 °F 19.7 °F 14.0 °F 65% 30.09 in 10.0 mi WSW 3.5 mph - N/A   Overcast
5:53 AM 24.1 °F 19.7 °F 12.9 °F 62% 30.09 in 10.0 mi WSW 3.5 mph - N/A   Overcast
6:53 AM 24.1 °F 15.2 °F 12.9 °F 62% 30.08 in 10.0 mi WSW 8.1 mph - N/A   Overcast
7:53 AM 23.0 °F 15.8 °F 12.9 °F 65% 30.07 in 10.0 mi SW 5.8 mph - N/A   Overcast
8:53 AM 24.1 °F 16.0 °F 12.0 °F 60% 30.06 in 10.0 mi WSW 6.9 mph - N/A   Overcast
9:53 AM 24.1 °F 13.7 °F 12.9 °F 62% 30.06 in 10.0 mi WSW 10.4 mph - N/A   Overcast
10:53 AM 25.0 °F 14.2 °F 14.0 °F 63% 30.04 in 10.0 mi WSW 11.5 mph - N/A   Overcast
11:16 AM 24.8 °F 13.4 °F 15.8 °F 69% 30.00 in 9.0 mi West 12.7 mph 20.7 mph 0.00 in   Overcast
11:53 AM 25.0 °F 13.1 °F 14.0 °F 63% 30.03 in 10.0 mi West 13.8 mph 20.7 mph 0.00 in   Overcast
12:20 PM 24.8 °F 14.0 °F 17.6 °F 74% 29.98 in 2.0 mi West 11.5 mph 20.7 mph 0.00 in Snow Light Snow
12:37 PM 24.8 °F 12.4 °F 15.8 °F 69% 29.98 in 5.0 mi West 15.0 mph - 0.00 in Snow Light Snow
12:53 PM 25.0 °F 12.2 °F 12.9 °F 60% 30.01 in 10.0 mi West 16.1 mph 23.0 mph 0.00 in   Mostly Cloudy
1:53 PM 23.0 °F 11.1 °F 14.0 °F 68% 30.01 in 10.0 mi WNW 12.7 mph 23.0 mph 0.00 in   Overcast
2:08 PM 23.0 °F 11.1 °F 15.8 °F 74% 29.99 in 2.5 mi West 12.7 mph 24.2 mph 0.00 in Snow Light Snow
2:17 PM 21.2 °F 8.9 °F 15.8 °F 80% 29.99 in 1.8 mi West 12.7 mph - 0.00 in Snow Light Snow
2:25 PM 23.0 °F 10.1 °F 15.8 °F 74% 29.99 in 2.5 mi WNW 15.0 mph 20.7 mph 0.00 in Snow Light Snow
2:32 PM 24.8 °F 14.0 °F 15.8 °F 69% 29.98 in 8.0 mi West 11.5 mph 20.7 mph 0.00 in Snow Light Snow
2:41 PM 24.8 °F 10.7 °F 12.2 °F 59% 29.98 in 10.0 mi West 19.6 mph 27.6 mph 0.00 in   Mostly Cloudy
2:53 PM 24.1 °F 10.1 °F 10.0 °F 55% 30.02 in 10.0 mi West 18.4 mph 29.9 mph 0.00 in   Mostly Cloudy
3:53 PM 21.9 °F 10.4 °F 9.0 °F 58% 30.04 in 10.0 mi West 11.5 mph 27.6 mph 0.00 in   Overcast
4:44 PM 19.4 °F 5.0 °F 10.4 °F 68% 30.03 in 2.5 mi West 16.1 mph 27.6 mph 0.00 in Snow Light Snow
4:49 PM 19.4 °F 4.5 °F 12.2 °F 74% 30.03 in 1.2 mi West 17.3 mph 31.1 mph 0.00 in Snow Light Snow
4:53 PM 19.0 °F 3.6 °F 12.0 °F 74% 30.07 in 1.2 mi West 18.4 mph 31.1 mph 0.00 in Snow Light Snow
4:58 PM 19.4 °F 5.5 °F 10.4 °F 68% 30.04 in 2.0 mi West 15.0 mph 31.1 mph 0.00 in Snow Light Snow
5:06 PM 19.4 °F 7.2 °F 10.4 °F 68% 30.04 in 9.0 mi West 11.5 mph 20.7 mph 0.00 in   Overcast
5:13 PM 19.4 °F 6.0 °F 8.6 °F 63% 30.04 in 10.0 mi WNW 13.8 mph 20.7 mph 0.00 in   Overcast
5:53 PM 18.0 °F 4.2 °F 6.1 °F 60% 30.10 in 10.0 mi West 13.8 mph 21.9 mph 0.00 in   Overcast
6:53 PM 17.1 °F 3.0 °F 8.1 °F 68% 30.11 in 2.5 mi West 13.8 mph 19.6 mph 0.00 in Snow Light Snow
6:57 PM 17.6 °F 4.3 °F 10.4 °F 73% 30.07 in 1.2 mi West 12.7 mph 19.6 mph 0.00 in Snow Light Snow
7:17 PM 15.8 °F 3.4 °F 10.4 °F 79% 30.08 in 2.0 mi West 10.4 mph - 0.00 in Snow Light Snow
7:24 PM 15.8 °F 2.7 °F 12.2 °F 86% 30.08 in 1.2 mi West 11.5 mph - 0.00 in Snow Light Snow
7:44 PM 15.8 °F 0.3 °F 6.8 °F 68% 30.08 in 7.0 mi West 16.1 mph 25.3 mph 0.00 in   Overcast
7:53 PM 16.0 °F 1.1 °F 5.0 °F 62% 30.12 in 10.0 mi West 15.0 mph 25.3 mph 0.00 in   Overcast
8:53 PM 14.0 °F -2.5 °F 3.0 °F 62% 30.13 in 8.0 mi West 17.3 mph 24.2 mph 0.00 in Snow Light Snow
9:53 PM 12.9 °F -2.2 °F 1.9 °F 62% 30.16 in 7.0 mi West 13.8 mph 20.7 mph 0.00 in Snow Light Snow
10:53 PM 12.0 °F 1.5 °F -0.9 °F 56% 30.17 in 10.0 mi West 6.9 mph 20.7 mph 0.00 in   Scattered Clouds
11:53 PM 10.9 °F -4.7 °F -0.9 °F 59% 30.19 in 10.0 mi West 13.8 mph 23.0 mph N/A   Mostly Cloudy